User: anonymous   Login
Location: Unspecified
(0.0000°N, 0.0000°E)
Time: 02:49:47
(UTC+01:00)
Language:

Cosmos 1782 Rocket - Orbit

View from above orbital plane
View from above orbital plane
View from above satellite
View from above satellite

Ground track
Ground track

The orbit data is extracted from the following two-line orbital elements,

1 16987U 86074B   14298.68877911  .00000802  00000-0  96779-4 0  5018
2 16987 082.5143 134.4387 0018295 196.0051 209.5775 14.82501711515391
Epoch (UTC): 25 October 2014 16:31:50
Eccentricity: 0.0018295
inclination: 82.5143°
perigee height: 608 km
apogee height: 634 km
right ascension of ascending node: 134.4387°
argument of perigee: 196.0051°
revolutions per day: 14.82501711
mean anomaly at epoch: 209.5775°
orbit number at epoch: 51539

The dashed part of the orbit path shows where the satellite is in the earth's shadow,  

DLR